Regional Weather Roundup
Issued by NWS Newport/Morehead, NC

Current Version | Previous Version | Graphics & Text | Print | Product List | Glossary Off
Versions: 1 2 3 4 5 6 7 8 9 10 11 12 13 14 15 16 17 18 19 20 21 22 23 24 25 26 27 28 29 30 31 32 33 34 35 36 37 38 39 40 41 42 43 44 45 46 47 48 49 50

000
ASUS42 KMHX 240725
RWRMHX
WEATHER ROUNDUP FOR EASTERN NORTH CAROLINA
NATIONAL WEATHER SERVICE NEWPORT/MOREHEAD CITY NC
300 AM EDT THU AUG 24 2017

NOTE: "FAIR" INDICATES FEW OR NO CLOUDS BELOW 12,000 FEET
WITH NO SIGNIFICANT WEATHER AND/OR OBSTRUCTIONS TO VISIBILITY

NCZ015>017-031-032-045>047-102-103-240800-
NORTH COAST

CITY           SKY/WX    TMP DP  RH WIND       PRES   REMARKS
EDENTON        PTCLDY    74  73  94 CALM      29.86S
ELIZABETH CITY CLOUDY    76  75  97 N7        29.85R
KITTY HAWK     MOSUNNY   75  75 100 CALM      29.82S FOG
MANTEO         CLOUDY    76  75  98 N8        29.83S

$$

NCZ045>047-081-094-103-104-240800-
CENTRAL COAST

CITY           SKY/WX    TMP DP  RH WIND       PRES   REMARKS
FRISCO         MOCLDY    79  75  87 VRB6      29.83R

$$

NCZ095-097-098-100-101-240800-
SOUTHERN COAST

CITY           SKY/WX    TMP DP  RH WIND       PRES   REMARKS
BEAUFORT       CLOUDY    74  74 100 N8        29.85R
CEDAR ISLAND   NOT AVBL
JACKSONVILLE   CLOUDY    73  72  96 N3        29.84R
PINEY ISLAND   CLOUDY   N/A N/A N/A NW12      29.85R
WILMINGTON     HVY RAIN  73  72  96 SW8       29.86S FOG


$$

NCZ011>013-027>030-043-044-078>080-089-090>093-098-240800-
COASTAL PLAIN

CITY           SKY/WX    TMP DP  RH WIND       PRES   REMARKS
AHOSKIE        NOT AVBL
CLINTON        MOCLDY    71  71 100 CALM      29.86R
ELIZABETHTOWN  NOT AVBL
GOLDSBORO      CLEAR     73  70  89 N1        29.86F
GREENVILLE     CLOUDY    73  73 100 CALM      29.90R
HAVELOCK       LGT RAIN  72  71  97 NW7       29.86R
KENANSVILLE    MOCLDY    72  70  94 NW3       29.86R
KINSTON        CLOUDY    72  71  98 CALM      29.87R
NEW BERN       CLOUDY    72  72 100 NW5       29.87R
RICHLANDS      CLOUDY    71  70  96 CALM      29.85F
ROCKY MOUNT    CLOUDY    73  73 100 CALM      29.87S
WASHINGTON     CLOUDY    72  71  96 SW5       29.87R
WHITEVILLE     LGT RAIN  72  71  95 S5        29.85S

$$

AMZ130-135-150-152-154-156-158-170-250-252-270-ANZ085-086-088-633-658-670-240800-
MARINE OBSERVATIONS

STATION/POSITION TIME  TEMP    WIND        PRES    WAVE   SWELL
                       AIR SEA DIR/SP/G            HT/PER HT/PER
                 (UTC) (F)     (DEG/KT/KT) (MB)    (FT/S) (FT/S)
CHESAPEAKE LIGHT NOT AVBL
64 E VA BEACH    0650   78 79   20/ 17/ 19 1009.8    4/ 8   2/ 8
DUCK             0700   77 68   30/ 14/ 16 1010.0
2 E DUCK         0630      75                N/A     2/ 8
OREGON INLET     0700   76 77  340/  3/  5 1009.8
13E OREGON INLT  0648      79                N/A     3/ 9   2/ 9
HATTERAS CG      0700   78 80  330/ 12/ 14 1010.2
DIAMOND BUOY     0650   80 85  330/ 12/ 16 1009.6    4/ 5   2/ 8
CAPE LOOKOUT     0700   77     270/  8/  9 1009.9
BEAUFORT LAB     0700   76 81  350/  6/ 10 1009.9
30 SE NEW RVR IN 0708   78 83  250/ 14/ 17 1009.9
30 SE NEW RVR IN 0713      83                N/A     4/ 8
27 SE WRIGHTSVLE 0708   78 83  250/ 10/ 16 1010.7
5 SE WRIGHTSVLE  0708   77 83  250/ 12/ 17 1011.3
225 S CAPE HAT   0650   82 84  230/ 16/ 21 1011.9    3/ 9   2/ 9
41 SE CHARLESTON 0700   84     220/ 17/ 21 1010.6

$$



USA.gov is the U.S. government's official web portal to all federal, state and local government web resources and services.